Date String (YYYY-MM-DD hh:mm:ss) UTC,Instrument flags,Ambient pressure (hPa),Sample flow (lpm),Bypass flow (lpm),Sample temperature (°C),Ambient temperature (°C),ASC tube jacket temperature (°C),LED temperature (°C),Box temperature (°C),Sample RH (%),Span deviation,Mass concentration (μg/m³),Mass concentration (μg/m³),Mass concentration (μg/m³)
DateTimeUTC,F1_M11,P_M11,Q1_M11,Q2_M11,T1_M11,T2_M11,T3_M11,T4_M11,T5_M11,U1_M11,ZSPAN_M11,X0_M11,X2_M11,X1_M11
2022-05-12 03:00:00,,0818.9,5.01,0.00,29.8,26.5,00.0,38.7,31.2,20.7,0001.6,0032.63,0009.34,0005.80
2022-05-12 03:01:00,,0818.9,5.00,0.00,29.6,25.8,00.0,38.6,31.0,20.8,0001.4,0031.44,0009.29,0005.78
2022-05-12 03:02:00,,0818.9,4.99,0.00,29.6,26.1,00.0,38.6,31.1,20.9,0001.0,0031.21,0009.30,0005.77
2022-05-12 03:03:00,,0819.0,5.00,0.00,29.5,26.5,00.0,38.6,31.1,21.0,0001.8,0032.56,0009.30,0005.75
2022-05-12 03:04:00,,0819.0,4.99,0.00,29.5,26.9,00.0,38.5,31.2,21.0,0002.0,0034.06,0009.21,0005.74
2022-05-12 03:05:00,,0818.9,5.01,0.00,29.5,27.3,00.0,38.5,31.2,21.0,0002.4,0033.43,0009.12,0005.72
2022-05-12 03:06:00,,0818.9,5.00,0.00,29.5,27.6,00.0,38.5,31.3,21.0,0002.6,0031.94,0009.07,0005.73
2022-05-12 03:07:00,,0819.0,5.00,0.00,29.6,27.8,00.0,38.5,31.4,20.9,0002.6,0031.73,0009.16,0005.76
2022-05-12 03:08:00,,0819.0,5.00,0.00,29.6,28.0,00.0,38.5,31.4,20.9,0002.9,0031.16,0009.21,0005.78
2022-05-12 03:09:00,,0819.0,5.01,0.00,29.6,28.2,00.0,38.5,31.4,20.9,0003.2,0030.39,0009.30,0005.79
2022-05-12 03:10:00,,0819.1,5.00,0.00,29.6,28.3,00.0,38.5,31.5,20.8,0003.0,0030.24,0009.30,0005.79
2022-05-12 03:11:00,,0819.0,5.00,0.00,29.7,28.4,00.0,38.5,31.5,20.7,0003.1,0030.31,0009.26,0005.80
2022-05-12 03:12:00,,0819.0,4.98,0.00,29.7,28.5,00.0,38.5,31.5,20.7,0002.8,0031.14,0009.34,0005.82
2022-05-12 03:13:00,,0819.1,5.01,0.00,29.7,28.5,00.0,38.6,31.6,20.6,0002.3,0030.48,0009.37,0005.85
2022-05-12 03:14:00,,0819.1,5.01,0.00,29.7,28.6,00.0,38.6,31.6,20.6,0001.8,0029.34,0009.41,0005.88
2022-05-12 03:15:00,,0819.1,4.99,0.00,29.8,28.7,00.0,38.6,31.6,20.7,0001.7,0028.81,0009.44,0005.90
2022-05-12 03:16:00,,0819.1,4.99,0.00,29.8,28.7,00.0,38.6,31.6,20.7,0001.8,0029.35,0009.42,0005.89
2022-05-12 03:17:00,,0819.1,5.00,0.00,29.8,28.8,00.0,38.6,31.7,20.6,0002.2,0029.61,0009.36,0005.88
2022-05-12 03:18:00,,0819.1,5.00,0.00,29.8,28.8,00.0,38.6,31.7,20.6,0002.0,0030.12,0009.32,0005.88
2022-05-12 03:19:00,,0819.1,5.00,0.00,29.8,28.8,00.0,38.7,31.7,20.5,0001.8,0031.04,0009.31,0005.89
2022-05-12 03:20:00,,0819.0,5.01,0.00,29.8,28.2,00.0,38.7,31.5,20.5,0001.4,0032.44,0009.28,0005.88
2022-05-12 03:21:00,,0819.0,5.01,0.00,29.7,26.1,00.0,38.7,31.0,20.6,0001.4,0033.85,0009.24,0005.89
2022-05-12 03:22:00,,0819.0,4.99,0.00,29.6,25.7,00.0,38.6,30.9,20.7,0001.2,0033.50,0009.20,0005.86
2022-05-12 03:23:00,,0818.9,5.01,0.00,29.5,26.1,00.0,38.6,31.1,20.8,0001.4,0034.25,0009.19,0005.86
2022-05-12 03:24:00,,0819.0,4.99,0.00,29.5,26.5,00.0,38.5,31.1,20.8,0001.8,0034.47,0009.17,0005.85
2022-05-12 03:25:00,,0819.0,5.00,0.00,29.5,26.9,00.0,38.5,31.1,20.8,0002.1,0033.70,0009.17,0005.84
2022-05-12 03:26:00,,0819.1,5.01,0.00,29.5,27.3,00.0,38.5,31.2,20.8,0002.3,0032.37,0009.12,0005.85
2022-05-12 03:27:00,,0819.1,4.99,0.00,29.5,27.5,00.0,38.5,31.3,20.8,0002.2,0032.17,0009.15,0005.87
2022-05-12 03:28:00,,0819.1,5.00,0.00,29.5,27.7,00.0,38.5,31.3,20.8,0001.6,0032.22,0009.24,0005.87
2022-05-12 03:29:00,,0819.1,5.00,0.00,29.5,28.0,00.0,38.5,31.3,20.8,0001.7,0031.09,0009.25,0005.85
2022-05-12 03:30:00,,0819.1,5.00,0.00,29.6,28.1,00.0,38.5,31.4,20.7,0001.8,0030.31,0009.31,0005.82
2022-05-12 03:31:00,,0819.1,5.00,0.00,29.6,28.2,00.0,38.5,31.4,20.7,0001.6,0029.56,0009.34,0005.83
2022-05-12 03:32:00,,0819.2,5.00,0.00,29.6,28.3,00.0,38.5,31.4,20.7,0001.4,0029.06,0009.40,0005.83
2022-05-12 03:33:00,,0819.2,4.99,0.00,29.6,28.4,00.0,38.5,31.4,20.6,0001.8,0029.43,0009.45,0005.83
2022-05-12 03:34:00,,0819.2,5.01,0.00,29.7,28.5,00.0,38.5,31.5,20.6,0001.9,0030.08,0009.44,0005.83
2022-05-12 03:35:00,,0819.2,4.99,0.00,29.7,28.6,00.0,38.5,31.5,20.5,0001.7,0031.24,0009.41,0005.83
2022-05-12 03:36:00,,0819.2,5.01,0.00,29.7,28.6,00.0,38.5,31.6,20.4,0001.4,0031.65,0009.33,0005.81
2022-05-12 03:37:00,,0819.2,5.01,0.00,29.7,28.7,00.0,38.6,31.6,20.4,0001.2,0031.92,0009.35,0005.78
2022-05-12 03:38:00,,0819.3,5.01,0.00,29.8,28.7,00.0,38.6,31.6,20.3,0001.0,0031.19,0009.36,0005.77
2022-05-12 03:39:00,,0819.3,4.99,0.00,29.8,28.8,00.0,38.6,31.6,20.4,0000.5,0030.77,0009.38,0005.76
2022-05-12 03:40:00,,0819.3,5.00,0.00,29.8,28.8,00.0,38.6,31.7,20.3,0000.2,0030.52,0009.36,0005.76
2022-05-12 03:41:00,,0819.2,5.00,0.00,29.8,28.8,00.0,38.6,31.7,20.3,0000.3,0030.44,0009.31,0005.76
2022-05-12 03:42:00,,0819.2,5.01,0.00,29.8,28.9,00.0,38.6,31.7,20.3,0000.5,0030.45,0009.24,0005.74
2022-05-12 03:43:00,,0819.2,5.01,0.00,29.8,28.8,00.0,38.7,31.6,20.3,0001.1,0028.98,0009.15,0005.72
2022-05-12 03:44:00,,0819.2,5.01,0.00,29.8,27.1,00.0,38.7,31.2,20.3,0001.0,0029.31,0009.11,0005.70
2022-05-12 03:45:00,,0819.2,4.99,0.00,29.6,25.8,00.0,38.6,30.9,20.5,0001.0,0027.27,0009.02,0005.68
2022-05-12 03:46:00,,0819.2,5.01,0.00,29.6,25.9,00.0,38.6,31.0,20.5,0000.8,0026.67,0008.95,0005.66
2022-05-12 03:47:00,,0819.2,5.00,0.00,29.5,26.3,00.0,38.5,31.1,20.6,0000.9,0027.73,0008.95,0005.65
2022-05-12 03:48:00,,0819.2,4.99,0.00,29.5,26.7,00.0,38.5,31.1,20.6,0001.0,0028.43,0008.96,0005.65
2022-05-12 03:49:00,,0819.2,5.01,0.00,29.5,27.1,00.0,38.5,31.1,20.6,0001.2,0031.58,0008.95,0005.64
2022-05-12 03:50:00,,0819.2,5.00,0.00,29.5,27.4,00.0,38.5,31.2,20.6,0001.8,0032.10,0008.90,0005.62
2022-05-12 03:51:00,,0819.2,5.00,0.00,29.5,27.7,00.0,38.5,31.3,20.6,0002.4,0031.69,0008.82,0005.62
2022-05-12 03:52:00,,0819.2,5.01,0.00,29.5,27.9,00.0,38.5,31.3,20.5,0002.6,0032.03,0008.82,0005.61
2022-05-12 03:53:00,,0819.3,5.00,0.00,29.6,28.0,00.0,38.5,31.4,20.6,0002.7,0032.37,0008.79,0005.61
2022-05-12 03:54:00,,0819.3,5.00,0.00,29.6,28.2,00.0,38.5,31.4,20.1,0002.7,0034.07,0008.82,0005.60
2022-05-12 03:55:00,,0819.3,5.01,0.00,29.6,28.3,00.0,38.5,31.4,20.1,0002.6,0033.97,0008.85,0005.59
2022-05-12 03:56:00,,0819.4,4.99,0.00,29.6,28.4,00.0,38.5,31.4,20.1,0002.5,0033.71,0008.84,0005.58
2022-05-12 03:57:00,,0819.4,5.00,0.00,29.7,28.5,00.0,38.5,31.5,19.8,0002.7,0033.54,0008.90,0005.57
2022-05-12 03:58:00,,0819.3,5.00,0.00,29.7,28.5,00.0,38.5,31.5,19.7,0002.7,0032.51,0008.97,0005.57
2022-05-12 03:59:00,,0819.3,4.99,0.00,29.7,28.6,00.0,38.5,31.5,19.6,0002.7,0032.53,0009.00,0005.56
